MST,Max TemperatureF,Mean TemperatureF,Min TemperatureF,Max Dew PointF,MeanDew PointF,Min DewpointF,Max Humidity, Mean Humidity, Min Humidity, Max Sea Level PressureIn, Mean Sea Level PressureIn, Min Sea Level PressureIn, Max VisibilityMiles, Mean VisibilityMiles, Min VisibilityMiles, Max Wind SpeedMPH, Mean Wind SpeedMPH, Max Gust SpeedMPH,PrecipitationIn, CloudCover, Events, WindDirDegrees
2012-1-1,35,27,19,19,15,10,80,66,44,30.61,30.49,30.29,10,10,10,9,5,,0.00,0,,93
2012-1-2,44,30,15,27,21,10,86,66,46,30.61,30.42,30.24,10,10,10,8,3,,0.00,0,,16
2012-1-3,51,38,26,27,21,16,86,53,28,30.37,30.22,30.13,10,10,10,10,4,,0.00,0,,162
2012-1-4,51,37,23,28,22,14,74,58,35,30.39,30.34,30.28,10,10,10,10,4,,0.00,0,,122
2012-1-5,59,44,30,34,25,19,69,47,31,30.27,30.06,29.89,10,10,10,10,5,17,0.00,0,,191
2012-1-6,50,38,24,27,24,18,80,57,30,30.11,30.02,29.89,10,10,10,15,5,17,0.00,0,,126
2012-1-7,39,32,24,28,21,18,80,71,52,30.14,30.01,29.92,10,10,10,13,7,17,0.00,4,,4
2012-1-8,39,29,19,21,18,14,93,69,45,30.20,30.15,30.12,10,10,10,10,3,,0.00,0,,167
2012-1-9,50,36,21,28,22,16,86,64,40,30.26,30.20,30.14,10,10,10,9,2,,0.00,0,,151
2012-1-10,55,40,24,34,25,18,86,59,34,30.12,29.92,29.79,10,10,10,13,3,,0.00,0,,158
2012-1-11,41,26,10,25,12,3,86,65,39,30.15,30.06,29.82,10,10,5,34,16,40,0.00,5,,7
2012-1-12,42,24,6,18,9,1,85,52,25,30.10,30.05,29.98,10,10,10,20,6,,0.00,2,,157
2012-1-13,51,37,23,16,11,7,59,40,19,30.08,30.00,29.96,10,10,10,18,7,23,0.00,2,,156
2012-1-14,55,38,21,21,14,7,63,40,23,30.13,30.03,29.88,10,10,10,17,9,18,0.00,0,,74
2012-1-15,53,38,24,21,16,10,69,46,18,29.87,29.79,29.67,10,10,10,18,5,26,0.00,0,,354
2012-1-16,42,27,10,23,16,7,93,69,27,30.03,29.75,29.61,10,9,0,16,7,21,0.00,4,,110
2012-1-17,28,14,1,10,4,-2,100,69,31,30.16,30.06,29.99,10,9,1,10,5,,0.00,1,,159
2012-1-18,48,30,12,19,14,0,79,46,27,29.97,29.80,29.66,10,10,10,20,9,31,0.00,0,,145
2012-1-19,60,51,42,28,25,21,43,35,29,29.78,29.70,29.60,10,10,10,33,18,43,0.00,1,,243
2012-1-20,55,42,30,27,23,19,75,41,26,29.98,29.79,29.60,10,10,10,26,11,38,0.00,0,,308
2012-1-21,51,36,21,28,23,18,86,67,41,29.89,29.55,29.29,10,10,10,18,4,24,0.00,0,,24
2012-1-22,46,35,21,27,17,9,68,43,23,29.86,29.61,29.25,10,10,10,34,15,44,0.00,2,,352
2012-1-23,44,30,17,19,16,10,80,60,36,29.90,29.84,29.80,10,10,10,15,6,,0.00,0,,2
2012-1-24,41,34,28,28,21,16,93,62,39,30.21,30.00,29.78,10,10,2,26,7,31,0.00,6,,25
2012-1-25,64,40,17,27,18,12,93,59,15,30.15,30.04,29.91,10,10,10,26,6,37,0.00,0,,285
2012-1-26,53,40,26,27,21,12,86,50,25,30.11,30.01,29.80,10,10,10,18,10,33,0.00,0,,60
2012-1-27,44,34,23,25,20,12,86,60,34,30.28,30.05,29.78,10,9,1,26,10,33,0.00,4,,358
2012-1-28,42,27,12,18,12,9,93,61,25,30.29,30.21,30.15,10,10,10,12,7,,0.00,0,,114
2012-1-29,60,40,21,21,16,10,64,39,20,30.18,30.11,30.00,10,10,10,14,5,18,0.00,0,,213
2012-1-30,57,44,30,23,18,14,64,40,23,29.96,29.87,29.78,10,10,10,10,4,,0.00,0,,21
2012-1-31,46,36,26,21,16,12,69,44,29,30.06,29.99,29.90,10,10,10,15,6,,0.00,0,,137